This demonstration page uses our WeatherBlox Daily Observations layout. Learn more.

Left ArrowRight Arrow

41.55636, -103.73856

Hourly Observations for February 7, 2015

Temp ( °F °C ) Dew Point ( °F °C ) Humidity (%) Winds ( mph kmh ) Pressure ( in mb ) Visibility ( mi km ) Precip ( " mm )
12:53 am 00:53 Clear 41 5 25 -3.9 53 53 WNW 10 17 29.73 1007 10 16.0934 0 0
1:53 am 01:53 Clear 44 6.7 23 -5 43 43 WNW 6 9 29.7 1006 10 16.0934 0 0
2:53 am 02:53 Clear 49 9.4 24 -4.4 38 38 W 10 17 29.67 1005 10 16.0934 0 0
3:53 am 03:53 Clear 45 7.2 24 -4.4 44 44 WNW 7 11 29.68 1005 10 16.0934 0 0
4:53 am 04:53 Clear 50 10 22 -5.6 33 33 NW 6 9 29.69 1005 10 16.0934 0 0
5:53 am 05:53 Clear 47 8.3 24 -4.4 41 41 WNW 5 7 29.71 1006 10 16.0934 0 0
6:53 am 06:53 Clear 45 7.2 27 -2.8 49 49 W 14 22 29.75 1007 10 16.0934 0 0
7:53 am 07:53 Sunny 54 12.2 26 -3.3 34 34 W 9 15 29.76 1008 10 16.0934 0 0
8:53 am 08:53 Sunny 51 10.6 27 -2.8 39 39 NNW 8 13 29.77 1008 10 16.0934 0 0
9:53 am 09:53 Sunny 60 15.6 26 -3.3 27 27 WNW 8 13 29.71 1006 10 16.0934 0 0
10:53 am 10:53 Sunny 65 18.3 25 -3.9 22 22 W 14 22 29.71 1006 10 16.0934 0 0
11:53 am 11:53 Sunny 71 21.7 22 -5.6 16 16 W 15 24 29.68 1005 10 16.0934 0 0
12:53 pm 12:53 Sunny 65 18.3 27 -2.8 24 24 W 17 28 29.68 1005 10 16.0934 0 0
1:53 pm 13:53 Sunny 70 21.1 28 -2.2 21 21 W 18 30 29.65 1004 10 16.0934 0 0
2:53 pm 14:53 Sunny 69 20.6 28 -2.2 22 22 WNW 26 43 29.65 1004 10 16.0934 0 0
3:53 pm 15:53 Sunny 67 19.4 25 -3.9 20 20 W 21 33 29.67 1005 10 16.0934 0 0
4:53 pm 16:53 Sunny 64 17.8 26 -3.3 24 24 W 20 31 29.68 1005 10 16.0934 0 0
5:53 pm 17:53 Clear 61 16.1 26 -3.3 26 26 W 23 37 29.67 1005 10 16.0934 0 0
6:53 pm 18:53 Clear 60 15.6 26 -3.3 27 27 W 23 37 29.72 1007 10 16.0934 0 0
7:53 pm 19:53 Clear 57 13.9 26 -3.3 30 30 W 20 31 29.76 1008 10 16.0934 0 0
8:53 pm 20:53 Clear 55 12.8 25 -3.9 31 31 W 21 33 29.78 1008 10 16.0934 0 0
9:53 pm 21:53 Clear 53 11.7 26 -3.3 35 35 W 21 33 29.78 1008 10 16.0934 0 0
10:53 pm 22:53 Clear 51 10.6 28 -2.2 41 41 WNW 14 22 29.8 1009 10 16.0934 0 0
11:53 pm 23:53 Clear 40 4.4 28 -2.2 63 63 NW 7 11 29.83 1010 10 16.0934 0 0

Powered by AerisWeather